Temp
36 39 40 36 38 38 36 37 31 36 38 46 49 49 50 52 53 54 56 54 51 49 47 47 43 42 42 40 38 38 37 37 35 37 38 38 37 38 39 38 37 37 35 33
25 38 39 35 40 39 40 40 40 40 39 50 53 56 52 54 54 54 55 55 52 51 48 45 44 43 42 40 37 38 35 35 35 35 35 36 37 38 37 36 35 33 31 30
25 36 35 26 33 39 43 44 43 36 45 51 51 54 53 53 55 54 55 55 52 49 49 47 45 42 41 40 40 38 36 34 34 34 34 35 37 36 33 31 31 29 27 26
24 29 17 35 46 46 42 46 47 47 47 47 49 56 54 54 53 54 55 55 54 51 48 46 44 42 41 40 38 36 35 34 34 34 34 34 34 32 31 30 28 27 24 24
20 21 29 37 41 41 40 39 49 48 49 47 46 50 47 54 52 53 54 53 52 52 48 44 43 42 39 39 38 36 35 34 34 34 34 32 31 29 29 28 26 26 26 23
21 19 17 33 46 47 48 30 47 50 49 48 49 37 38 50 52 48 45 47 49 48 46 43 43 41 38 37 36 35 34 34 34 35 33 32 30 29 29 29 26 27 26 23
25 24 29 42 46 51 27 29 47 48 48 45 42 42 47 49 48 46 40 35 45 47 44 42 43 40 36 35 34 34 34 34 33 34 32 32 31 30 29 29 29 28 29 27
26 24 22 41 38 31 35 43 45 47 45 39 38 37 38 44 44 44 40 37 35 38 38 39 39 37 35 35 35 35 33 31 32 32 32 31 30 29 30 29 27 28 29 28
29 28 40 42 42 47 45 44 43 42 47 45 40 40 42 45 45 42 38 38 38 35 35 37 38 37 35 34 34 34 33 31 31 31 31 30 28 29 28 28 26 27 27 26
31 38 41 45 45 45 45 44 47 49 49 49 48 47 46 46 43 40 37 38 37 36 35 34 35 37 35 35 35 33 31 30 30 29 29 29 31 31 29 27 26 26 25 24
31 37 41 44 45 44 44 44 42 51 49 48 48 48 46 45 44 42 38 37 39 37 35 33 34 34 35 35 34 32 31 30 29 29 30 30 31 30 31 30 31 28 27 27
26 38 38 40 43 46 43 43 45 46 47 48 47 46 48 47 46 42 38 38 36 36 35 33 33 33 34 35 33 31 30 31 31 31 31 31 30 25 34 33 35 35 33 30
36 43 43 44 46 48 46 45 47 46 48 45 47 49 49 45 43 41 40 39 37 36 35 34 33 33 35 35 34 33 31 31 31 31 30 29 29 27 27 30 33 33 33 33
44 43 40 44 41 47 44 51 47 45 45 45 46 48 47 46 44 42 40 40 39 38 36 34 34 33 35 36 34 33 32 32 31 30 29 29 29 27 25 24 21 20 31 31
44 46 46 48 48 48 49 52 49 45 44 43 44 42 43 42 41 37 40 41 39 37 36 36 34 32 35 34 33 32 32 30 30 30 29 29 28 26 25 23 21 20 23 25
44 43 46 43 45 48 49 48 45 46 45 45 44 43 44 43 42 42 41 40 37 35 36 34 33 34 35 35 34 33 33 30 30 30 29 28 27 26 25 24 23 21 20 20
37 37 43 43 43 44 43 42 42 40 39 38 38 43 44 40 38 37 36 36 35 34 35 34 31 33 32 33 34 33 32 32 30 31 30 29 28 27 26 24 24 21 20 21
43 44 41 39 39 39 37 36 35 35 34 35 34 33 31 34 34 31 31 33 33 32 29 34 33 31 30 30 32 32 31 31 30 29 29 29 29 29 28 26 25 23 22 22
41 38 36 36 36 35 34 33 33 33 33 33 34 33 33 32 32 32 26 31 33 32 30 32 33 34 33 32 33 32 30 29 29 29 30 29 29 29 28 26 25 25 24 23
35 35 35 33 33 32 31 31 32 32 33 33 33 33 32 32 32 29 25 29 29 30 29 32 34 34 33 33 33 32 30 29 28 27 29 29 29 27 26 26 26 26 25 23
32 32 31 31 30 31 31 31 31 31 32 33 32 32 31 31 32 32 29 28 28 28 32 32 34 33 32 32 33 29 29 30 30 29 28 27 28 27 27 25 26 26 24 24
32 31 31 31 30 29 30 31 31 31 31 32 32 32 31 30 30 30 30 29 29 30 31 31 32 32 32 31 31 31 29 28 28 28 26 27 27 27 26 26 25 26 25 23
31 31 31 30 29 29 29 29 30 30 30 31 30 29 29 30 30 28 26 29 30 31 31 31 31 31 31 31 29 28 27 27 28 26 24 25 24 24 24 23 24 25 25 22
31 30 30 30 30 30 29 28 30 30 31 30 30 31 29 27 28 30 31 31 31 31 30 30 29 30 31 30 29 28 28 29 28 26 26 22 22 22 24 22 22 22 25 24
31 32 31 31 31 30 31 31 31 30 29 28 28 29 29 29 27 28 29 29 29 29 29 29 29 29 30 29 28 27 26 29 28 25 23 22 20 20 23 24 24 24 23 23
32 32 32 34 33 33 31 32 29 29 28 27 27 28 29 29 29 29 29 28 28 27 28 29 29 29 29 28 28 26 25 25 24 23 22 23 24 24 25 24 23 23 22 21
33 32 33 31 31 31 31 30 29 28 28 27 26 27 28 28 28 28 28 27 25 27 28 28 28 28 28 28 27 26 25 24 22 24 24 24 24 24 23 22 22 20 20 21
MSLP
1007.74 1006.85 1006.83 1006.70 1005.93 1005.35 1005.02 1005.29 1005.09 1003.59 1002.27 1000.87 1000.04 999.41 1000.32 1000.57 1000.29 1000.28 1000.45 1000.69 1001.55 1002.99 1004.78 1006.07 1006.82 1007.50 1008.27 1009.17 1010.39 1011.54 1012.33 1013.30 1014.30 1015.77 1016.81 1017.76 1018.04 1019.08 1019.59 1019.76 1020.69 1021.38 1022.12 1022.79
1009.02 1007.71 1006.81 1006.74 1005.30 1004.94 1004.42 1003.83 1003.38 1002.62 1001.05 999.75 999.61 999.82 999.84 999.41 999.27 999.73 999.97 1000.00 1000.91 1002.08 1003.30 1004.71 1005.90 1007.28 1008.42 1009.49 1010.58 1011.46 1012.77 1014.02 1014.50 1015.88 1016.94 1017.58 1018.34 1019.10 1019.30 1020.11 1020.91 1021.49 1022.39 1022.88
1008.96 1007.74 1007.49 1006.41 1004.55 1003.88 1003.08 1002.32 1002.15 1001.90 1000.79 1000.05 999.94 999.15 998.56 998.47 998.53 998.59 998.95 999.61 1000.22 1001.59 1002.76 1003.97 1005.37 1006.74 1007.75 1008.99 1010.13 1011.61 1012.92 1014.16 1014.98 1015.74 1017.26 1017.65 1018.33 1018.59 1019.53 1020.49 1021.15 1021.94 1022.61 1023.24
1009.15 1008.14 1006.90 1003.83 1002.29 1001.72 1001.21 1000.92 1000.86 1000.60 1000.32 999.95 998.90 997.55 997.47 997.69 997.89 998.09 998.57 998.85 999.73 1001.16 1002.79 1004.15 1005.29 1006.66 1008.27 1009.43 1010.42 1011.68 1012.83 1014.16 1014.94 1016.01 1016.91 1017.72 1018.11 1018.79 1019.86 1020.73 1021.37 1022.11 1022.83 1023.64
1009.37 1007.89 1005.65 1002.84 1001.29 1001.41 1001.07 1000.15 999.45 999.32 999.52 999.82 999.52 998.25 998.16 997.71 997.90 997.64 998.01 998.69 999.27 1000.32 1002.07 1004.02 1005.21 1006.93 1008.11 1009.15 1010.44 1011.59 1012.68 1013.45 1014.56 1015.68 1016.90 1017.43 1018.01 1018.98 1019.92 1020.75 1021.67 1022.10 1022.95 1023.74
1008.59 1007.48 1005.33 1002.40 1001.33 1001.06 1000.57 1000.33 999.78 999.11 999.44 1000.28 1000.10 999.04 998.94 998.52 998.28 998.55 998.77 998.87 999.41 1000.92 1002.63 1004.05 1005.27 1006.53 1007.82 1008.98 1010.22 1011.44 1012.22 1013.25 1014.04 1015.42 1016.66 1017.34 1018.07 1019.13 1019.85 1020.65 1021.51 1022.20 1022.98 1023.61
1007.58 1006.91 1004.67 1003.16 1002.58 1001.37 1001.84 1002.19 1000.40 1000.18 999.95 1000.59 1000.28 1000.77 999.67 999.20 999.49 999.70 1000.19 1000.38 1000.28 1001.17 1002.12 1003.44 1004.74 1006.24 1007.86 1009.15 1010.03 1011.04 1012.36 1013.55 1014.50 1015.54 1016.40 1017.47 1018.40 1019.32 1019.96 1020.88 1021.46 1021.95 1022.65 1023.70
1007.17 1006.25 1005.13 1004.53 1003.75 1004.12 1003.81 1002.05 1001.60 1001.07 1000.79 1000.39 1000.62 1000.27 1000.03 999.96 999.84 1000.50 1001.05 1001.47 1001.67 1001.87 1002.40 1003.34 1004.51 1006.00 1007.40 1008.45 1009.87 1010.87 1012.20 1013.47 1014.59 1015.52 1016.64 1017.59 1018.28 1019.42 1020.11 1020.70 1021.11 1021.77 1022.66 1023.37
1006.71 1005.61 1004.49 1004.47 1004.90 1003.82 1003.42 1002.73 1001.87 1001.39 1000.57 1000.04 999.76 999.78 999.83 1000.05 1000.30 1000.79 1001.60 1002.31 1002.79 1002.81 1003.64 1004.46 1005.12 1005.92 1007.27 1008.29 1009.41 1010.94 1011.80 1013.06 1014.25 1015.36 1016.33 1017.48 1018.49 1019.23 1019.99 1020.38 1020.68 1021.50 1022.31 1022.92
1007.33 1005.58 1004.86 1004.03 1003.99 1003.60 1003.62 1002.98 1002.17 1001.22 1000.29 999.85 999.68 999.19 999.15 999.66 1000.60 1001.12 1001.82 1002.32 1002.97 1003.97 1004.23 1004.99 1005.48 1006.29 1007.45 1008.66 1009.27 1010.97 1011.35 1012.51 1013.77 1015.05 1016.20 1017.21 1018.12 1018.71 1019.24 1019.82 1020.19 1021.06 1021.85 1022.52
1006.84 1006.04 1004.82 1003.85 1003.61 1003.12 1002.89 1002.56 1002.40 1000.72 1000.26 1000.29 999.93 999.58 999.23 999.63 1000.09 1000.76 1001.83 1002.63 1003.15 1004.11 1004.88 1005.25 1005.81 1006.70 1007.63 1008.65 1009.51 1011.00 1012.07 1012.90 1013.90 1015.17 1016.13 1016.77 1017.42 1018.07 1018.54 1019.08 1019.54 1020.27 1020.94 1021.47
1006.07 1005.57 1004.83 1003.93 1003.43 1002.88 1002.63 1002.28 1001.42 1001.66 1000.26 1000.33 1000.38 999.84 999.32 999.45 999.82 1000.77 1001.99 1002.55 1003.47 1004.32 1005.34 1006.07 1006.38 1006.95 1007.83 1008.82 1009.63 1010.56 1012.15 1013.34 1014.05 1014.89 1015.89 1016.41 1017.13 1018.09 1018.20 1018.74 1019.27 1019.65 1019.98 1020.51
1005.57 1005.17 1004.81 1004.08 1003.41 1002.49 1002.07 1001.44 1001.23 1000.67 1000.43 1000.80 1000.47 999.51 998.87 1000.02 1000.88 1001.82 1002.05 1002.69 1003.63 1004.54 1005.37 1006.20 1006.91 1007.39 1008.05 1008.85 1009.78 1010.69 1011.73 1012.98 1013.78 1014.72 1015.53 1016.05 1017.04 1017.82 1018.44 1019.18 1019.32 1019.70 1020.00 1020.23
1004.78 1004.58 1003.83 1003.33 1002.84 1002.61 1002.27 1000.67 1000.48 1000.54 1000.57 1000.95 1000.88 1000.50 1001.26 1001.81 1002.26 1002.29 1002.73 1003.15 1003.90 1004.94 1005.72 1006.49 1007.32 1007.89 1008.41 1009.13 1010.02 1010.97 1011.97 1012.85 1013.68 1014.45 1015.11 1015.93 1016.82 1017.74 1018.49 1019.15 1019.82 1020.25 1020.54 1020.74
1004.07 1003.78 1003.51 1002.82 1001.88 1001.77 1001.55 1000.30 1000.52 1000.74 1000.93 1001.17 1001.38 1001.72 1001.62 1001.80 1002.12 1002.85 1003.54 1004.19 1004.90 1005.66 1006.22 1006.20 1007.34 1008.25 1008.67 1009.33 1010.05 1010.91 1011.84 1012.87 1013.64 1014.37 1015.13 1015.93 1016.73 1017.63 1018.32 1019.08 1019.85 1020.44 1020.96 1021.43
1003.71 1003.79 1003.27 1002.60 1001.87 1001.11 1000.75 1000.69 1000.94 1001.06 1001.24 1001.45 1001.83 1001.99 1002.17 1002.43 1002.88 1003.11 1003.08 1003.71 1004.94 1005.99 1006.24 1006.57 1007.22 1007.97 1008.66 1009.23 1009.99 1010.90 1011.67 1012.47 1013.29 1014.14 1014.97 1015.70 1016.47 1017.22 1018.06 1018.78 1019.58 1020.38 1020.93 1021.53
1004.09 1003.68 1003.13 1002.43 1002.05 1001.81 1001.90 1002.20 1002.32 1002.74 1002.64 1002.53 1002.57 1002.31 1002.47 1002.98 1003.55 1004.12 1004.36 1004.81 1005.24 1005.51 1005.98 1006.45 1007.53 1008.48 1008.96 1009.34 1010.03 1010.80 1011.52 1012.30 1013.09 1014.03 1014.69 1015.37 1016.10 1016.82 1017.59 1018.34 1019.17 1020.02 1020.57 1020.97
1003.80 1003.63 1003.33 1003.49 1003.28 1003.14 1003.50 1003.73 1003.88 1003.79 1003.71 1003.69 1003.38 1003.16 1003.14 1003.45 1003.86 1004.53 1004.93 1005.36 1005.89 1006.47 1006.87 1007.00 1007.49 1008.37 1009.01 1009.61 1010.07 1010.68 1011.41 1012.09 1012.95 1013.75 1014.40 1015.13 1015.79 1016.52 1017.26 1017.94 1018.93 1019.60 1020.13 1020.72
1004.02 1004.35 1004.73 1004.70 1004.53 1004.66 1004.97 1005.05 1004.93 1004.73 1004.46 1004.27 1004.04 1004.19 1004.21 1004.41 1004.77 1005.15 1005.37 1005.76 1006.38 1006.80 1007.47 1007.36 1007.56 1008.22 1009.02 1009.60 1010.19 1010.98 1011.69 1012.44 1013.15 1013.74 1014.26 1014.84 1015.62 1016.31 1017.00 1017.59 1018.42 1019.01 1019.59 1020.26
1005.12 1005.29 1005.58 1005.88 1006.04 1006.00 1005.89 1005.87 1005.63 1005.27 1005.17 1004.85 1005.01 1005.07 1005.24 1005.47 1005.68 1005.86 1006.04 1006.64 1007.02 1007.15 1007.46 1007.65 1007.89 1008.59 1009.23 1009.81 1010.47 1011.24 1011.93 1012.55 1013.37 1013.99 1014.47 1014.99 1015.58 1016.10 1016.73 1017.40 1018.00 1018.55 1019.13 1019.74
1005.91 1006.14 1006.37 1006.58 1006.45 1006.20 1006.21 1006.09 1006.15 1006.02 1005.91 1005.70 1005.81 1006.02 1006.03 1006.17 1006.30 1006.56 1006.91 1007.32 1007.84 1007.77 1007.81 1007.96 1008.37 1009.16 1009.70 1010.40 1010.95 1011.69 1012.44 1012.94 1013.50 1014.14 1014.67 1015.18 1015.63 1016.09 1016.63 1017.21 1017.74 1018.22 1018.82 1019.42
1006.54 1006.88 1007.06 1007.05 1007.07 1007.28 1007.34 1007.11 1006.87 1006.67 1006.40 1006.35 1006.63 1006.61 1006.61 1006.77 1006.93 1007.10 1007.35 1007.70 1008.18 1008.33 1008.42 1008.74 1009.33 1009.88 1010.30 1010.80 1011.41 1012.06 1012.73 1013.21 1013.78 1014.33 1014.85 1015.26 1015.65 1016.06 1016.55 1017.07 1017.56 1018.04 1018.61 1019.24
1007.23 1007.35 1007.47 1007.76 1007.86 1007.93 1007.82 1007.71 1007.60 1007.34 1007.03 1007.05 1007.48 1007.32 1007.35 1007.46 1007.58 1007.72 1008.12 1008.63 1008.71 1008.78 1009.05 1009.47 1009.97 1010.55 1010.97 1011.45 1012.05 1012.58 1013.11 1013.55 1014.05 1014.54 1015.00 1015.42 1015.85 1016.24 1016.65 1017.10 1017.54 1017.94 1018.46 1019.08
1007.79 1007.96 1008.01 1007.96 1008.04 1008.06 1008.19 1008.26 1008.25 1008.15 1007.82 1008.35 1008.21 1007.85 1008.05 1008.17 1008.31 1008.43 1008.59 1008.92 1009.17 1009.46 1009.86 1010.26 1010.73 1011.13 1011.52 1012.08 1012.58 1013.01 1013.42 1013.82 1014.29 1014.74 1015.09 1015.42 1015.85 1016.26 1016.62 1017.05 1017.54 1017.85 1018.33 1018.88
1008.05 1008.07 1008.02 1007.84 1007.98 1008.26 1008.39 1008.51 1008.64 1008.69 1009.04 1009.34 1009.07 1008.79 1008.80 1008.86 1008.88 1009.38 1009.49 1009.76 1010.02 1010.31 1010.70 1011.07 1011.40 1011.72 1012.20 1012.66 1013.04 1013.43 1013.80 1014.18 1014.56 1014.99 1015.37 1015.71 1016.07 1016.40 1016.68 1017.05 1017.45 1017.88 1018.31 1018.72
1007.79 1007.84 1007.79 1007.84 1007.93 1008.22 1008.24 1008.53 1009.08 1009.23 1009.53 1009.78 1009.72 1009.62 1009.62 1009.75 1009.90 1010.06 1010.30 1010.58 1010.87 1011.17 1011.43 1011.68 1012.02 1012.43 1012.82 1013.19 1013.58 1013.95 1014.32 1014.69 1015.03 1015.36 1015.67 1015.99 1016.32 1016.66 1016.97 1017.29 1017.70 1018.12 1018.53 1018.92
1007.66 1007.65 1007.85 1008.22 1008.39 1008.50 1008.58 1008.90 1009.33 1009.48 1009.76 1009.97 1010.09 1010.30 1010.38 1010.54 1010.70 1010.91 1011.12 1011.37 1011.66 1011.86 1012.06 1012.36 1012.65 1012.99 1013.36 1013.74 1014.17 1014.56 1014.90 1015.22 1015.52 1015.86 1016.21 1016.54 1016.86 1017.18 1017.50 1017.85 1018.21 1018.58 1018.91 1019.22
Wind_Speed
14 17 12 12 16 9 8 9 8 16 13 11 3 6 11 14 9 8 8 14 14 15 11 10 11 12 14 15 14 15 15 15 14 10 10 10 10 10 10 11 10 9 9 7
5 14 13 17 14 13 13 13 16 16 19 15 11 12 10 14 10 7 8 12 15 18 19 18 18 16 15 15 15 16 14 12 14 13 10 10 10 9 9 9 9 7 8 9
8 5 8 6 14 13 12 13 8 9 17 17 16 16 12 10 10 9 8 12 17 18 19 18 17 16 18 18 17 16 14 13 13 14 12 10 10 10 10 8 9 11 10 9
12 7 9 9 8 12 10 12 10 12 12 16 14 22 7 7 11 9 8 11 15 14 14 15 15 16 15 14 15 15 15 15 14 13 12 9 10 11 9 8 10 10 9 8
5 4 9 13 8 4 11 14 11 9 7 7 16 5 3 4 3 8 8 8 11 16 16 16 17 16 16 16 15 16 16 16 16 15 13 11 12 12 9 10 8 8 9 9
3 5 7 1 6 6 9 9 13 3 6 8 14 2 5 5 7 6 6 4 13 16 17 17 17 19 19 17 16 15 14 14 16 14 12 12 12 12 9 9 8 8 9 8
10 9 7 8 14 10 5 5 15 12 6 5 5 5 1 3 3 4 3 5 7 18 19 18 19 18 15 15 15 14 15 13 13 12 12 12 10 10 10 10 10 9 9 9
3 5 7 17 18 8 8 15 10 6 4 4 1 5 6 6 5 4 5 4 4 7 12 16 17 17 18 18 14 18 16 15 14 13 10 10 12 10 11 11 11 10 9 7
2 4 3 6 11 5 8 9 9 11 9 4 2 3 5 5 3 5 6 4 4 8 11 10 13 14 16 13 18 17 18 16 15 14 12 11 11 12 10 10 9 10 9 8
10 7 14 11 9 13 15 14 13 11 7 10 8 8 7 4 4 6 5 7 8 7 11 10 11 13 13 13 15 14 16 17 14 13 12 12 9 9 9 9 9 9 8 8
7 9 15 5 13 13 16 17 16 6 4 7 8 10 7 8 8 8 8 7 8 8 8 11 12 13 13 15 17 13 11 11 12 11 13 11 9 8 8 7 9 9 8 8
10 10 8 15 13 21 12 13 19 16 4 7 10 12 8 5 8 10 9 10 9 10 9 9 12 14 14 15 15 16 13 11 11 10 10 9 9 3 9 11 12 11 14 13
9 14 14 15 16 19 17 21 18 0 5 3 10 14 8 10 9 9 9 10 10 10 10 10 10 12 13 14 16 16 14 13 10 11 10 10 9 7 8 6 13 13 14 15
13 13 15 15 12 13 22 4 5 3 3 5 7 14 14 10 5 6 6 8 10 10 11 11 9 10 11 13 13 13 13 15 11 10 9 9 9 8 7 7 6 2 10 11
15 8 14 12 20 18 18 3 4 4 4 4 5 3 6 10 11 10 9 9 9 9 9 12 10 9 10 12 13 13 11 9 9 8 8 8 8 8 7 7 7 5 5 5
6 11 11 15 19 8 6 6 7 7 1 3 6 6 6 5 6 8 12 15 12 7 8 9 10 12 12 12 12 10 10 12 9 8 9 8 8 8 8 8 8 7 6 6
9 10 10 3 6 7 11 10 8 7 7 11 7 4 7 7 7 6 6 5 4 5 7 10 8 8 8 8 10 7 8 10 9 8 8 8 9 8 8 8 8 7 7 7
15 3 12 9 9 9 10 10 9 9 9 7 6 4 3 5 7 6 6 8 8 8 4 9 11 9 7 7 7 7 8 9 7 8 7 8 8 8 8 8 8 8 6 8
12 13 11 11 10 9 8 7 7 6 6 5 5 6 5 6 5 5 4 8 7 8 0 6 13 13 10 9 10 7 8 8 7 6 7 9 7 7 7 7 7 8 8 8
10 10 10 9 8 6 5 4 4 6 6 5 6 6 6 6 5 6 5 6 3 4 5 7 10 10 10 12 11 8 9 8 7 5 6 6 6 6 6 7 7 7 8 8
7 6 5 5 6 9 8 7 5 6 6 6 5 4 5 5 5 6 6 5 3 4 6 8 8 7 7 9 8 6 6 7 7 6 6 6 6 6 6 6 6 7 7 7
6 5 5 6 7 6 6 4 4 5 7 7 6 5 6 6 6 6 5 4 4 6 5 6 7 7 7 10 7 7 6 6 5 5 4 4 5 5 6 7 6 6 7 7
5 5 6 5 4 4 4 6 6 6 8 9 6 7 6 4 3 5 5 4 4 6 6 6 10 10 10 7 6 6 5 6 5 4 4 4 4 4 5 4 5 6 7 7
3 3 1 1 3 3 5 3 4 5 9 8 7 6 4 4 6 5 6 7 8 8 6 7 8 8 9 6 6 6 5 6 5 4 4 5 4 4 4 4 4 4 6 7
4 4 2 1 5 2 4 4 4 7 7 6 7 7 7 5 4 4 6 7 10 8 7 9 10 10 6 6 5 5 4 4 5 4 4 4 3 4 4 4 5 5 5 5
4 3 2 5 4 2 2 4 4 3 4 4 4 5 5 5 6 6 6 7 7 8 6 5 6 6 6 6 6 5 5 5 4 4 4 4 5 5 5 5 5 5 5 4
1 2 3 3 3 3 3 4 3 4 4 4 5 4 5 5 6 6 7 6 4 5 5 5 5 6 6 6 6 6 5 4 5 5 5 5 5 5 5 5 5 5 4 5
Wind_Direction
231 264 271 287 301 311 301 263 263 275 275 283 232 192 226 227 238 229 205 146 150 143 147 155 141 138 140 136 135 139 139 145 137 130 131 145 137 145 149 131 135 137 135 120
301 259 262 250 255 275 270 272 261 258 269 264 280 265 209 204 205 232 201 167 164 158 156 163 160 155 148 144 141 137 134 138 131 132 143 152 147 158 139 133 147 136 120 114
267 314 298 251 235 230 249 247 251 280 277 277 269 254 242 206 205 215 215 188 166 169 168 163 163 156 157 153 146 143 142 144 140 139 157 152 158 142 127 126 120 117 113 112
283 297 244 247 238 238 251 265 227 241 265 295 262 247 199 208 201 210 221 175 169 168 157 165 150 150 147 147 145 146 147 150 144 150 157 156 141 126 127 129 125 126 118 121
231 237 275 281 275 232 269 274 241 255 277 277 301 299 350 36 333 205 184 170 171 166 155 153 151 150 146 152 153 155 160 155 158 158 161 152 145 137 139 132 132 128 131 135
207 218 245 128 339 54 2 273 13 283 54 4 235 120 263 7 7 46 49 116 138 145 143 149 158 158 156 158 159 166 161 157 150 154 157 152 143 145 143 140 139 138 140 143
233 241 286 0 347 297 183 303 344 351 8 78 29 299 290 92 44 58 39 3 128 150 162 166 159 152 152 159 166 151 145 145 146 151 146 141 138 145 143 146 147 145 140 155
236 216 264 3 349 353 328 319 337 318 324 45 291 325 307 313 123 85 57 16 12 134 152 153 154 151 160 165 156 146 145 145 151 152 153 151 146 153 156 154 147 149 161 157
282 265 302 317 284 267 259 291 335 305 266 187 66 304 271 302 193 127 106 81 54 124 122 145 154 152 153 153 139 145 146 155 153 147 145 147 161 161 161 161 157 164 175 179
328 343 313 318 330 345 337 329 259 257 13 358 317 264 279 276 165 136 128 116 115 126 136 130 137 142 134 140 134 148 146 144 144 147 155 167 164 169 169 172 163 171 176 177
302 284 304 320 328 330 332 318 321 298 27 358 342 348 221 206 157 139 123 123 126 134 142 131 127 126 135 140 136 141 138 144 148 155 166 161 164 170 176 173 173 174 178 169
275 295 304 320 323 308 310 313 286 291 355 10 9 341 315 214 131 124 128 128 124 126 131 126 127 132 137 142 142 139 142 152 157 153 160 156 152 110 150 140 148 172 165 154
294 296 288 286 297 299 295 263 277 239 57 64 14 16 46 83 91 121 125 129 134 142 136 136 132 133 142 146 149 153 151 157 152 154 158 154 154 145 139 112 110 110 125 134
280 287 290 301 282 307 294 247 108 90 72 75 82 69 66 55 44 96 111 123 127 137 138 132 135 143 149 147 145 146 150 156 157 158 157 158 156 147 143 145 129 115 128 129
271 315 304 281 286 278 279 343 158 191 175 170 131 103 84 104 101 91 82 93 114 133 144 138 143 158 157 150 149 148 148 154 152 153 157 155 148 147 143 139 138 138 121 121
317 317 297 273 271 275 342 340 19 12 124 221 169 160 159 124 120 117 129 135 145 163 160 154 161 167 165 156 154 153 152 149 147 154 155 153 153 152 152 154 153 157 157 154
304 294 272 302 9 13 38 42 50 45 28 33 359 180 145 134 115 115 94 100 88 152 168 150 144 148 152 147 154 152 147 154 147 158 160 159 159 163 160 159 162 165 171 165
250 242 48 40 28 43 38 33 25 25 30 355 340 23 84 154 159 126 120 114 95 77 67 145 140 136 134 136 131 136 142 146 141 148 140 148 156 158 163 161 162 168 168 167
56 57 42 36 31 47 45 34 29 19 15 13 47 46 65 68 94 100 98 105 117 125 72 134 133 139 138 127 122 122 120 122 126 126 133 129 134 147 156 155 161 169 165 166
58 62 61 59 53 60 59 30 19 32 15 37 44 65 76 82 89 83 72 76 82 128 131 123 123 122 120 119 117 120 123 127 130 129 139 144 146 151 150 159 162 166 160 166
71 62 56 55 47 39 32 28 26 38 30 45 67 80 97 94 102 106 101 98 41 82 107 104 114 113 118 121 123 120 130 135 138 147 148 154 151 151 155 158 157 149 156 161
62 61 63 56 50 39 14 20 28 57 62 59 52 67 76 73 69 65 60 107 113 116 93 90 98 95 112 114 114 118 119 118 127 130 132 138 142 141 148 156 152 147 155 158
65 59 57 58 73 61 34 34 33 47 65 64 61 64 62 62 80 103 95 76 102 91 99 105 115 116 110 109 115 117 114 116 127 128 130 130 133 131 138 145 146 146 153 157
79 74 105 109 99 77 78 54 53 42 60 48 47 50 68 71 63 56 97 105 95 92 101 114 116 116 109 109 112 112 112 119 124 123 124 122 132 139 140 145 142 144 150 156
126 126 184 174 102 108 116 113 96 78 63 48 45 49 53 39 80 74 79 87 90 93 102 105 105 95 99 106 104 101 102 113 113 115 120 126 130 131 123 123 125 128 123 127
223 209 132 64 87 89 87 105 100 101 108 85 60 57 62 64 75 76 77 83 89 97 102 96 101 99 102 101 101 96 94 97 98 93 97 93 97 97 105 107 108 114 122 124
252 108 109 88 66 83 73 92 109 108 105 105 94 71 75 81 84 85 85 78 76 90 89 91 90 92 97 98 96 95 91 90 92 95 93 94 96 98 97 95 95 95 96 107